Location: Dąbrówka
(52.2799°N, 15.8070°E)
Time: 07:19:49
(UTC+02:00)

ISS - Visible Passes

Search period start: 27 May 2018 00:00
Search period end: 06 June 2018 00:00
Orbit: 402 x 407 km, 51.6° (Epoch: 27 May)

Date Brightness Start Highest point End Pass type
(mag) Time Alt. Az. Time Alt. Az. Time Alt. Az.
27 May -3.8 00:22:34 10° W 00:25:46 54° SSW 00:26:26 44° SSE visible
27 May -3.9 21:53:55 10° WSW 21:57:12 76° S 22:00:28 10° E visible
27 May -3.9 23:30:22 10° W 23:33:38 68° SSW 23:35:43 20° ESE visible
28 May -1.9 01:07:03 10° W 01:08:21 18° WSW 01:08:21 18° WSW visible
28 May -3.9 22:38:09 10° W 22:41:27 78° S 22:44:43 10° E visible
29 May -3.2 00:14:41 10° W 00:17:42 35° SSW 00:17:42 35° SSW visible
29 May -3.6 23:22:25 10° W 23:25:36 48° SSW 23:27:06 26° SE visible
30 May -1.2 00:59:40 10° WSW 00:59:43 10° WSW 00:59:43 10° WSW visible
30 May -3.8 22:30:10 10° W 22:33:25 63° SSW 22:36:31 11° ESE visible
31 May -2.3 00:06:56 10° W 00:09:09 21° SW 00:09:09 21° SW visible
31 May -2.9 23:14:30 10° W 23:17:27 31° SSW 23:18:35 24° S visible
01 Jun -3.3 22:22:10 10° W 22:25:18 43° SSW 22:28:03 12° SE visible
01 Jun -1.5 23:59:44 10° WSW 00:00:41 12° SW 00:00:41 12° SW visible
02 Jun -2.1 23:06:45 10° W 23:09:09 19° SW 23:10:11 16° S visible
03 Jun -2.5 22:14:12 10° W 22:17:02 27° SSW 22:19:41 11° SSE visible
04 Jun -1.3 23:00:03 10° SW 23:00:41 10° SW 23:01:18 10° SSW visible
05 Jun -1.7 22:06:30 10° WSW 22:08:38 16° SW 22:10:46 10° S visible
